Dewpoint
15 14 15 15 16 14 14 14 11 13 13 11 12 11 14 14 13 14 12 9 9 8 8 11 13 13 14 13 13 12 12 11 7 12 11 10 11 12 11 10 11 10 10 10 10 10 10 13 13
15 16 17 18 14 16 16 13 12 12 13 12 13 14 14 14 13 13 12 9 8 8 9 11 12 13 13 13 13 11 10 7 10 11 10 11 12 11 10 10 6 8 10 8 8 11 13 14 14
17 18 17 16 14 16 17 13 13 12 12 12 13 13 14 15 13 13 13 12 9 9 9 11 12 13 13 13 11 11 9 10 11 12 12 12 11 7 4 2 -3 -3 3 11 8 13 15 14 14
18 18 16 14 11 11 14 13 12 12 12 11 12 14 14 14 13 13 13 13 12 13 10 12 12 13 13 12 10 11 10 12 12 11 11 9 2 5 2 1 -2 -6 -6 1 7 13 11 12 12
17 16 16 12 11 13 13 12 11 12 13 13 13 15 16 15 12 11 12 13 13 13 11 11 12 12 13 11 10 12 12 11 11 10 8 1 3 5 6 12 3 -2 -6 1 5 11 12 13 12
14 15 13 15 14 13 12 11 12 13 13 14 14 15 15 14 11 11 11 11 12 13 12 11 12 12 13 10 10 12 12 11 10 10 4 5 8 9 9 8 5 -1 0 3 8 11 12 12 10
14 15 16 14 14 14 12 11 12 13 13 13 13 15 16 14 14 14 14 12 11 13 13 13 13 12 13 10 10 11 10 10 9 9 3 9 10 11 9 9 8 8 9 9 9 10 10 9 8
15 16 15 9 12 15 12 12 12 12 13 13 13 16 16 15 14 15 14 12 14 14 14 14 14 12 13 10 10 10 8 9 8 7 5 10 11 12 13 11 9 9 9 9 9 9 9 8 7
16 16 14 10 13 14 12 12 12 12 13 13 13 13 14 15 15 15 12 13 14 15 15 15 13 12 12 12 11 8 8 7 5 6 7 11 12 14 14 15 15 15 12 10 9 9 9 9 9
16 16 14 9 9 13 12 12 13 12 12 13 14 14 15 15 15 12 11 13 13 13 14 14 13 12 11 12 8 9 9 7 5 5 8 10 13 13 14 14 15 15 16 15 14 11 10 10 10
16 16 15 10 7 11 12 13 12 12 13 13 15 15 15 15 14 12 11 11 12 12 12 14 13 12 11 10 10 9 15 13 10 5 8 11 13 13 14 14 15 15 15 14 15 14 12 11 11
17 16 15 10 8 12 12 12 12 12 12 13 14 15 15 14 14 13 12 11 11 11 11 13 12 11 11 10 13 14 15 13 10 4 7 11 13 12 14 14 15 14 14 14 14 14 14 15 14
17 16 13 12 8 9 11 12 12 12 12 13 14 15 15 14 14 14 13 12 11 11 11 11 11 10 10 11 14 13 14 14 13 3 7 11 11 12 14 14 14 13 14 14 14 14 14 14 14
16 16 14 12 12 10 11 12 11 12 12 14 15 15 14 14 14 14 14 13 13 11 11 11 10 10 10 14 14 14 12 14 12 6 8 9 9 12 13 14 15 13 13 13 14 14 14 14 13
15 15 15 14 14 13 11 13 13 12 12 13 14 14 14 14 14 12 12 12 12 13 13 10 9 9 10 14 14 15 14 12 12 12 12 12 11 12 12 13 14 14 13 13 14 14 13 13 13
13 13 16 15 14 14 11 14 12 12 12 12 13 14 14 14 13 12 12 13 12 13 13 11 10 10 12 12 13 14 14 14 14 11 13 12 13 12 12 12 13 13 13 14 14 14 14 13 13
14 15 16 16 14 14 13 15 12 11 11 11 12 12 13 13 13 12 12 12 12 12 13 13 12 12 12 13 14 15 14 15 14 14 14 13 13 13 12 11 12 13 14 14 14 15 14 13 14
16 15 15 16 15 14 15 14 11 11 11 11 11 11 11 11 12 12 12 12 12 12 12 13 13 13 13 14 15 15 15 14 14 14 14 14 13 12 11 10 11 12 13 13 14 14 14 14 13
10 14 14 14 14 15 15 14 11 11 11 11 11 11 10 10 11 11 12 12 12 12 12 13 13 13 15 15 15 15 15 14 14 14 14 13 13 10 10 11 11 12 12 13 13 14 14 14 13
1 10 12 9 14 15 15 15 12 11 10 10 10 10 10 10 10 10 11 11 12 12 13 13 13 14 14 13 13 14 14 14 14 14 14 14 13 12 10 12 11 11 12 13 13 13 13 14 13
-10 -8 -8 4 11 11 7 9 15 12 10 10 10 10 10 10 10 10 11 11 12 12 13 13 13 14 14 13 13 13 13 14 14 14 14 14 13 14 13 12 13 13 13 12 13 13 13 13 13
-9 -11 -11 -10 2 6 2 2 1 14 12 10 10 11 10 10 10 9 10 11 11 11 12 13 13 13 13 13 13 13 13 11 14 14 14 14 13 13 14 14 12 14 14 13 12 13 13 13 12
-9 -12 -12 -12 -11 -11 -10 -9 -10 9 14 10 11 11 11 11 10 10 11 11 12 11 11 12 13 13 13 13 14 14 14 13 11 13 14 14 14 13 14 14 14 13 12 14 12 11 11 14 14
-12 -11 -8 -9 -11 -9 -12 -8 -10 14 14 14 14 14 12 12 11 10 10 11 11 12 12 13 13 13 13 13 13 13 13 13 13 12 12 12 13 13 14 14 14 14 14 13 14 12 12 14 14
-11 -9 -7 -6 -7 -7 -9 7 15 14 15 15 16 15 13 12 12 11 10 13 11 11 12 13 13 13 13 13 14 13 13 13 13 13 11 12 13 14 14 14 14 14 14 13 12 14 14 13 13
-9 -10 -5 -4 -5 -6 8 14 12 9 16 16 15 15 13 12 11 10 13 13 13 12 12 13 14 14 14 14 14 15 14 14 14 13 13 12 13 14 14 14 15 15 15 15 14 10 11 14 13
-9 -8 -11 -7 -7 10 12 12 9 5 11 16 16 15 15 14 13 14 13 15 14 14 15 14 14 14 15 15 15 15 15 15 15 15 15 13 13 14 15 14 14 15 15 14 15 15 13 10 14
-15 -13 -13 -10 -8 13 8 7 9 3 7 8 8 11 12 13 14 14 14 14 14 13 12 10 8 8 11 14 16 16 16 16 16 15 15 15 13 13 15 15 14 14 14 14 15 15 15 14 11
-10 -6 -7 -9 -10 3 7 5 5 6 3 5 5 7 9 12 14 15 15 15 14 11 8 5 4 3 -1 -3 2 12 15 15 15 15 16 15 15 14 13 14 15 15 15 15 16 15 16 15 14
-5 -5 -7 -4 -6 -1 2 2 2 5 4 3 3 7 11 10 10 10 11 11 9 8 7 6 6 5 0 -1 -2 -9 -9 -3 12 16 15 16 15 16 15 14 14 14 15 16 15 15 15 15 15
Wind_Speed
9 6 2 5 4 5 3 2 1 5 3 3 18 8 8 8 1 3 24 26 25 22 22 21 19 20 21 20 21 21 21 20 20 20 19 18 16 14 13 12 12 12 11 11 11 12 13 15 16
8 7 6 1 4 4 3 3 3 1 7 25 17 12 7 4 9 18 29 23 23 22 22 21 19 19 20 20 19 20 20 20 19 17 17 15 13 13 12 11 11 11 12 13 13 14 14 14 13
5 1 3 4 4 5 6 4 6 9 9 6 7 14 5 3 16 30 20 27 25 23 21 20 20 19 19 18 18 19 19 19 18 16 15 14 13 13 13 10 11 11 12 12 15 17 17 15 12
7 6 4 2 6 3 8 8 9 13 14 14 15 9 9 1 19 18 24 23 25 22 22 21 19 19 19 17 17 18 19 18 17 15 15 15 15 15 14 14 14 14 14 14 17 18 16 14 11
2 2 2 2 3 5 8 17 12 5 6 16 12 8 11 5 18 22 21 21 23 23 22 22 18 19 19 17 17 18 18 17 16 15 16 17 18 17 16 14 15 15 16 18 19 18 15 13 11
3 2 4 3 6 5 9 19 17 13 13 19 17 15 5 16 23 22 20 19 17 20 22 22 20 21 19 18 18 17 15 15 15 16 18 19 19 19 20 19 19 20 21 23 22 19 16 11 10
2 3 2 7 11 10 9 20 14 17 18 10 18 5 12 24 21 20 17 16 14 17 22 24 22 23 19 18 17 18 16 15 14 17 19 20 21 21 23 23 24 24 24 24 22 19 15 12 11
1 2 2 1 6 4 13 9 12 26 8 21 26 5 11 25 20 18 15 14 13 18 22 26 25 25 22 20 17 16 15 14 15 18 21 20 20 22 23 22 22 21 20 19 17 14 12 13 14
3 3 1 5 6 9 16 7 18 3 23 11 5 23 30 27 22 18 19 17 16 21 24 26 28 26 22 19 17 16 14 13 16 20 21 19 20 19 16 17 14 14 13 11 11 10 10 10 11
4 2 3 4 6 15 19 23 16 11 19 7 19 31 31 28 25 24 24 22 21 20 22 24 27 26 22 19 17 16 17 16 19 21 21 20 19 16 12 12 10 10 7 5 5 5 4 3 5
1 3 3 8 14 23 21 15 11 25 6 25 35 36 33 30 27 23 23 20 22 19 19 24 28 26 23 19 18 19 18 17 17 20 21 20 17 14 12 11 11 11 11 10 6 5 4 2 2
3 5 7 5 20 18 18 16 13 13 11 31 36 38 34 32 29 25 23 22 24 21 19 23 29 26 23 20 19 19 16 16 16 19 21 20 14 8 11 11 11 10 10 10 9 6 4 2 3
1 6 3 14 15 22 24 13 12 9 28 28 35 36 33 31 28 25 20 21 21 20 19 22 29 24 22 20 19 15 13 14 12 17 20 17 12 8 10 10 12 10 6 3 5 5 2 2 2
8 6 2 14 14 18 16 13 11 16 30 31 34 34 31 30 27 25 22 21 22 20 19 23 31 23 18 18 15 13 13 13 12 17 17 14 13 11 9 8 9 8 3 2 3 4 6 7 4
5 1 4 3 7 6 23 4 6 30 31 30 33 33 32 29 27 27 23 23 21 20 20 25 28 22 18 17 14 12 11 12 11 17 11 10 12 11 9 7 7 4 4 7 6 4 6 6 7
2 4 3 2 6 6 4 4 10 28 31 27 30 35 35 31 31 26 25 24 21 22 21 22 25 21 20 18 15 12 13 12 10 15 11 8 11 11 12 11 9 8 8 7 4 3 3 5 5
2 3 3 1 8 5 3 5 17 27 28 25 28 29 32 32 32 30 28 26 23 23 23 21 25 21 19 17 15 12 12 14 12 12 9 11 13 15 14 15 13 10 9 8 5 3 3 5 7
5 3 4 6 7 5 4 6 17 27 26 27 27 31 31 32 31 34 32 28 26 25 24 24 23 21 19 18 17 16 17 16 14 14 12 10 12 15 16 16 16 13 11 9 8 7 7 9 12
3 5 6 4 5 5 7 9 18 25 21 23 26 31 30 30 27 30 32 31 30 26 28 26 24 20 21 22 24 22 21 19 18 17 13 10 10 15 20 19 19 16 13 13 11 12 12 12 15
6 2 4 1 7 5 6 7 16 23 27 29 29 27 31 28 25 27 31 33 30 27 30 28 25 22 22 22 21 24 24 24 20 17 17 14 14 11 19 20 20 18 18 18 16 16 17 17 13
4 6 3 3 4 2 5 4 8 20 20 23 25 30 31 31 27 31 31 32 31 30 29 26 25 23 21 19 18 20 26 29 26 25 22 20 18 17 15 22 22 20 22 21 21 18 18 19 16
3 2 2 5 4 4 4 4 4 16 18 19 24 28 29 29 30 33 32 33 30 27 24 24 25 23 22 20 22 21 19 29 34 31 26 24 22 21 21 17 24 26 24 24 25 23 21 20 20
5 4 3 2 4 3 2 3 7 5 11 15 20 31 27 23 27 30 30 31 30 26 24 23 24 23 21 21 23 24 22 21 24 33 30 32 28 26 24 24 22 21 29 29 26 26 25 22 19
3 5 7 5 3 3 4 5 3 3 9 6 15 26 29 24 19 24 32 28 27 29 29 29 28 25 23 22 21 23 24 23 24 29 33 31 32 30 28 29 28 25 24 32 32 29 28 26 24
6 7 3 3 3 5 5 5 2 13 4 16 20 24 33 27 29 30 20 15 21 28 28 29 29 30 27 25 26 23 23 24 26 27 32 34 32 33 32 28 31 28 28 26 35 36 33 30 30
3 7 5 5 3 3 7 6 7 8 14 22 23 23 30 28 29 22 10 11 8 17 25 25 25 27 27 28 29 30 30 30 30 30 31 36 37 37 34 32 31 32 30 31 29 34 39 36 33
3 2 4 6 3 5 3 2 3 11 7 16 20 21 20 22 22 20 18 11 11 11 11 8 9 16 19 21 28 32 34 36 39 39 36 38 39 39 39 37 37 36 37 35 35 34 34 39 39
4 5 2 4 3 4 3 3 2 7 6 10 12 14 11 9 11 12 16 14 12 10 6 5 7 7 10 14 18 22 27 33 36 42 44 42 40 40 39 38 39 40 38 36 36 37 33 34 38
5 4 7 6 4 5 4 2 6 6 7 10 17 18 17 21 24 22 19 19 12 5 1 4 8 10 10 10 10 17 25 33 36 32 38 47 44 42 43 41 43 43 40 37 35 36 35 35 33
4 3 4 5 1 2 5 2 5 6 14 21 21 25 20 21 21 20 17 12 6 2 5 6 7 8 11 16 18 18 19 23 27 28 30 33 40 46 46 45 46 46 46 42 41 38 34 37 37
Wind_Direction
123 119 171 143 64 56 34 200 97 122 134 168 157 128 125 30 102 162 144 157 160 152 144 137 133 126 127 123 124 125 124 121 118 115 115 112 109 108 105 106 111 112 117 118 118 112 115 109 109
141 138 109 348 67 86 3 52 120 264 118 115 94 106 56 60 112 142 147 160 162 156 149 143 136 130 131 125 127 125 124 121 118 113 113 109 106 103 101 99 111 118 121 121 120 118 119 117 105
113 71 156 154 121 142 172 232 151 116 142 125 111 77 66 39 118 146 156 156 165 159 154 145 141 135 136 131 130 129 125 120 115 114 112 106 101 95 97 99 99 112 126 124 122 121 115 109 104
147 195 249 137 137 161 158 182 160 140 82 95 98 72 84 137 126 142 147 155 166 161 160 153 147 141 141 134 132 129 128 121 116 109 105 98 95 96 94 96 99 100 111 124 125 120 116 106 99
187 170 30 118 70 104 147 163 152 92 97 100 109 96 101 121 145 139 145 153 163 166 165 163 153 148 145 138 135 132 132 122 114 106 100 94 97 96 93 91 90 97 107 116 122 123 115 106 87
341 38 57 54 91 104 150 160 137 110 104 102 102 100 100 149 145 144 145 147 158 170 172 167 161 154 149 140 137 133 127 124 113 108 101 103 99 96 91 88 90 95 105 112 116 118 112 101 82
100 64 88 118 125 142 158 149 140 127 122 110 128 85 132 157 154 150 150 155 164 172 173 170 165 157 148 143 141 138 134 129 120 113 109 108 104 100 97 94 94 101 106 109 112 114 112 99 84
49 101 51 116 163 131 146 131 159 131 115 138 125 144 156 163 158 154 156 159 157 167 167 167 167 159 149 148 146 142 138 133 125 120 118 116 113 106 98 96 97 97 102 105 112 116 111 94 84
17 64 115 163 131 147 159 126 155 103 139 145 163 160 157 161 157 158 161 156 151 158 166 168 165 158 152 149 147 143 135 136 132 127 126 125 119 110 106 97 95 95 97 102 112 114 112 100 85
61 78 223 240 143 150 159 157 147 133 148 104 127 147 157 161 159 157 164 164 156 154 159 165 163 160 156 149 149 143 136 132 130 132 134 131 126 116 101 89 65 69 89 132 136 139 148 115 93
14 197 305 172 151 157 150 152 128 140 171 152 146 151 165 165 166 161 161 159 156 147 151 159 159 162 158 153 150 148 145 134 128 140 140 138 131 121 103 81 73 77 91 113 139 167 159 131 67
345 294 278 109 137 139 150 138 141 163 161 159 156 161 167 168 174 170 164 159 161 162 152 154 161 157 157 154 151 150 141 138 134 142 148 147 139 122 119 109 90 106 115 109 128 136 157 203 327
26 348 27 96 155 152 149 156 151 178 146 161 163 165 172 177 179 177 166 161 158 164 160 161 165 151 154 155 157 154 149 154 147 151 155 160 157 145 122 121 123 131 123 120 128 146 139 305 265
195 197 99 107 87 133 135 154 133 156 150 152 164 173 180 182 186 183 181 172 165 162 158 156 169 160 159 158 159 156 165 164 156 161 161 170 171 164 146 144 136 148 158 192 216 223 243 240 232
256 51 73 128 107 98 119 27 157 157 159 158 170 179 188 192 193 190 185 183 172 168 163 163 169 180 174 171 162 171 164 169 169 180 185 192 189 197 195 190 174 202 208 193 205 243 223 211 231
114 45 117 233 146 175 107 197 165 163 165 171 175 187 191 198 198 198 195 194 183 180 179 171 175 181 183 188 191 188 189 182 183 189 204 211 225 222 236 220 213 214 192 199 224 208 209 229 247
27 163 188 195 196 143 122 133 174 175 173 176 179 186 197 201 203 203 205 199 197 194 187 183 187 194 195 200 210 206 203 202 207 197 211 233 239 244 250 220 222 224 209 217 236 245 230 233 247
218 201 206 198 193 163 150 175 169 183 181 184 188 193 197 204 206 208 212 209 206 204 201 199 198 200 203 205 214 217 208 206 214 221 236 237 253 252 233 224 228 229 229 234 251 255 267 280 264
215 201 204 194 183 133 191 170 180 184 188 188 196 199 204 210 214 210 214 212 210 209 205 208 206 209 207 212 215 220 221 222 225 233 236 249 257 242 227 228 229 236 240 246 253 255 260 275 283
220 177 178 172 167 145 170 204 187 185 199 192 195 204 210 211 211 202 205 207 211 212 209 210 210 211 215 223 229 231 230 233 232 237 238 245 247 246 234 231 229 233 240 245 248 259 265 270 289
18 101 43 189 109 12 112 290 183 203 197 197 203 204 211 215 205 198 201 208 210 211 212 213 214 216 221 224 223 233 234 236 236 236 240 240 243 243 242 238 236 243 244 249 248 254 267 273 276
90 202 92 76 94 200 126 258 274 194 197 192 193 203 210 214 211 202 203 207 212 216 219 219 218 223 230 234 229 237 247 241 237 240 244 244 247 248 245 244 245 251 256 256 253 254 262 273 271
211 88 44 40 97 50 327 86 275 114 196 196 179 191 192 190 198 194 203 208 213 220 225 229 232 232 238 240 243 245 253 258 247 240 245 243 245 248 252 248 254 258 253 255 258 253 259 260 270
58 65 52 48 76 12 268 159 307 342 219 157 154 163 171 165 169 202 213 216 219 224 225 227 231 239 242 249 255 256 260 261 256 250 247 249 240 244 248 255 253 258 266 252 253 257 256 256 265
75 55 349 4 21 216 319 55 240 332 195 151 135 132 146 172 192 192 204 193 216 225 232 231 234 237 244 251 257 269 274 271 267 264 255 247 245 246 247 256 252 257 264 268 252 253 258 258 262
53 134 153 191 177 280 15 358 342 345 74 103 106 125 148 180 193 205 201 226 215 220 228 231 237 247 251 258 259 260 265 273 276 272 267 257 254 256 255 255 255 257 262 267 266 258 255 257 259
182 63 176 103 15 68 318 335 357 42 47 108 127 154 178 197 210 215 184 152 136 186 197 220 242 264 262 266 268 266 268 270 271 271 270 265 259 258 260 260 256 257 263 266 264 266 263 257 257
106 156 50 11 129 106 323 38 331 15 15 87 104 128 162 171 171 165 195 195 165 125 103 66 14 345 301 286 277 271 265 267 269 264 265 264 264 262 260 260 259 260 260 260 262 264 265 265 260
354 22 52 109 96 142 121 313 359 354 8 58 51 67 88 101 106 117 129 146 141 131 94 354 344 333 332 321 310 282 279 282 285 292 278 262 261 263 263 261 259 258 261 258 255 258 263 263 264
98 82 107 110 223 73 118 265 9 62 75 73 62 68 78 89 98 108 116 131 132 56 360 353 343 319 318 323 321 318 316 315 306 305 297 275 269 262 263 265 264 263 260 261 258 256 258 261 262
Height
1500 1501 1501 1503 1510 1512 1520 1514 1505 1512 1511 1511 1514 1516 1521 1522 1521 1533 1531 1536 1540 1542 1544 1546 1548 1548 1549 1550 1550 1551 1552 1553 1553 1554 1554 1555 1556 1556 1556 1557 1557 1558 1558 1558 1559 1559 1560 1561 1562
1501 1502 1504 1506 1519 1528 1527 1508 1509 1507 1510 1510 1514 1519 1521 1525 1524 1526 1531 1538 1542 1545 1546 1548 1550 1552 1552 1553 1554 1554 1555 1555 1556 1557 1557 1558 1559 1559 1560 1560 1560 1560 1560 1561 1562 1562 1563 1563 1564
1501 1502 1506 1508 1518 1530 1525 1507 1506 1510 1511 1511 1517 1520 1525 1528 1528 1531 1534 1538 1543 1547 1550 1551 1553 1554 1556 1557 1557 1557 1558 1558 1559 1560 1560 1560 1561 1562 1562 1562 1561 1561 1562 1563 1564 1566 1566 1566 1566
1503 1506 1503 1508 1512 1509 1507 1506 1507 1508 1512 1513 1517 1525 1530 1532 1533 1535 1539 1542 1545 1548 1551 1553 1555 1557 1559 1560 1561 1561 1561 1561 1562 1562 1563 1563 1564 1564 1565 1564 1564 1563 1563 1565 1567 1569 1569 1569 1569
1505 1504 1508 1504 1505 1505 1505 1506 1510 1510 1511 1516 1519 1529 1533 1537 1538 1539 1541 1544 1547 1549 1552 1555 1558 1559 1562 1563 1564 1564 1564 1564 1565 1566 1566 1567 1567 1568 1568 1568 1567 1566 1566 1567 1570 1572 1572 1572 1571
1503 1504 1516 1519 1509 1507 1509 1510 1510 1513 1516 1521 1524 1527 1537 1539 1540 1542 1544 1546 1549 1551 1553 1556 1559 1561 1564 1565 1567 1568 1568 1568 1569 1569 1569 1571 1571 1571 1571 1571 1571 1570 1570 1571 1573 1575 1575 1575 1574
1503 1507 1515 1511 1511 1513 1511 1513 1514 1514 1518 1523 1525 1531 1539 1542 1543 1544 1547 1548 1550 1552 1554 1557 1560 1563 1566 1567 1569 1570 1570 1571 1572 1572 1573 1574 1574 1575 1575 1575 1576 1576 1576 1576 1576 1577 1577 1577 1577
1505 1505 1509 1508 1514 1515 1512 1514 1517 1514 1520 1524 1526 1533 1539 1541 1544 1547 1549 1550 1551 1552 1555 1558 1561 1564 1567 1569 1571 1572 1573 1573 1574 1575 1577 1577 1578 1579 1579 1580 1581 1582 1582 1581 1581 1581 1581 1581 1580
1507 1513 1517 1509 1508 1510 1512 1514 1521 1519 1520 1524 1526 1529 1534 1540 1544 1547 1550 1551 1552 1554 1556 1558 1562 1566 1569 1570 1572 1573 1574 1575 1576 1578 1579 1580 1581 1582 1583 1584 1585 1585 1586 1586 1586 1585 1584 1583 1583
1508 1514 1509 1498 1497 1504 1510 1512 1515 1520 1525 1526 1527 1533 1538 1542 1545 1546 1549 1552 1554 1555 1557 1560 1564 1567 1569 1572 1574 1575 1577 1578 1578 1580 1582 1583 1584 1585 1586 1586 1586 1587 1588 1588 1589 1588 1587 1586 1586
1508 1511 1501 1498 1498 1502 1509 1516 1515 1520 1525 1524 1525 1532 1538 1543 1546 1548 1550 1553 1556 1558 1560 1562 1565 1568 1571 1573 1575 1577 1579 1580 1580 1582 1584 1586 1587 1588 1589 1589 1589 1589 1589 1590 1590 1590 1590 1589 1588
1508 1504 1503 1500 1502 1509 1511 1514 1517 1516 1518 1525 1529 1534 1538 1543 1546 1549 1551 1554 1557 1560 1563 1565 1567 1570 1573 1575 1577 1579 1581 1582 1584 1584 1586 1588 1590 1591 1592 1591 1592 1592 1592 1592 1592 1592 1592 1591 1590
1509 1510 1503 1501 1504 1508 1510 1513 1516 1521 1524 1528 1533 1537 1540 1543 1547 1551 1555 1556 1558 1561 1564 1567 1570 1573 1574 1577 1579 1581 1583 1585 1586 1586 1588 1589 1591 1592 1593 1593 1592 1594 1594 1594 1594 1594 1593 1592 1591
1508 1511 1506 1506 1506 1509 1512 1517 1517 1523 1525 1530 1535 1539 1541 1543 1547 1552 1555 1557 1560 1563 1565 1568 1572 1575 1578 1579 1581 1583 1584 1586 1587 1589 1590 1591 1592 1593 1594 1594 1594 1595 1595 1595 1595 1595 1593 1593 1591
1508 1510 1509 1510 1510 1513 1514 1523 1522 1522 1527 1530 1536 1539 1543 1545 1548 1551 1553 1557 1560 1563 1566 1569 1572 1576 1578 1580 1582 1584 1586 1587 1588 1590 1591 1592 1594 1594 1595 1595 1596 1596 1596 1596 1596 1595 1594 1593 1592
1511 1513 1522 1510 1511 1514 1516 1533 1524 1525 1527 1531 1535 1538 1541 1545 1546 1550 1554 1557 1561 1564 1566 1569 1573 1575 1578 1580 1583 1585 1586 1587 1589 1590 1591 1593 1594 1595 1595 1595 1596 1596 1596 1596 1596 1594 1593 1593 1592
1515 1526 1521 1514 1508 1511 1515 1528 1523 1525 1527 1529 1534 1538 1542 1544 1548 1550 1552 1555 1559 1563 1566 1568 1571 1573 1576 1579 1582 1584 1586 1587 1589 1590 1591 1592 1594 1594 1595 1595 1596 1596 1596 1596 1596 1595 1594 1593 1592
1521 1520 1517 1517 1509 1510 1515 1518 1520 1523 1526 1528 1532 1535 1539 1542 1544 1548 1551 1555 1558 1562 1565 1568 1570 1572 1575 1577 1580 1583 1585 1587 1589 1590 1591 1591 1593 1593 1593 1594 1595 1595 1595 1595 1595 1594 1593 1592 1591
1503 1510 1511 1506 1503 1510 1513 1516 1516 1521 1526 1528 1530 1533 1536 1540 1544 1547 1550 1554 1557 1560 1563 1566 1569 1572 1574 1575 1577 1580 1582 1585 1587 1588 1590 1590 1591 1590 1592 1593 1594 1595 1595 1595 1594 1594 1593 1593 1591
1499 1506 1511 1502 1501 1508 1515 1516 1515 1517 1517 1522 1527 1532 1535 1539 1542 1546 1549 1552 1554 1558 1562 1565 1567 1570 1572 1575 1576 1578 1580 1582 1585 1586 1587 1588 1589 1590 1590 1592 1593 1594 1594 1594 1595 1594 1594 1593 1592
1504 1506 1506 1508 1506 1508 1513 1523 1515 1512 1518 1526 1528 1531 1534 1536 1540 1544 1547 1550 1554 1557 1560 1563 1566 1569 1571 1573 1575 1576 1579 1579 1580 1582 1584 1586 1587 1588 1588 1590 1592 1592 1593 1593 1593 1593 1593 1592 1592
1510 1498 1500 1507 1516 1533 1512 1547 1517 1509 1514 1520 1525 1529 1531 1535 1540 1542 1544 1546 1550 1554 1559 1562 1564 1566 1569 1572 1573 1573 1574 1575 1577 1579 1581 1583 1584 1585 1586 1587 1589 1590 1590 1590 1591 1592 1592 1591 1590
1504 1498 1503 1504 1520 1522 1522 1537 1521 1511 1517 1514 1518 1524 1529 1533 1537 1541 1543 1546 1551 1555 1556 1559 1563 1564 1566 1569 1571 1572 1572 1573 1574 1577 1577 1579 1580 1582 1583 1584 1585 1586 1586 1587 1588 1589 1589 1588 1588
1497 1503 1516 1526 1533 1551 1530 1534 1532 1522 1510 1512 1516 1520 1525 1532 1539 1543 1543 1546 1549 1554 1557 1559 1562 1563 1564 1566 1568 1569 1569 1571 1572 1573 1573 1574 1575 1576 1578 1580 1580 1581 1581 1582 1583 1584 1585 1585 1584
1505 1524 1552 1549 1555 1554 1534 1539 1534 1519 1507 1507 1514 1522 1527 1533 1535 1540 1540 1543 1546 1551 1556 1558 1560 1562 1564 1565 1567 1566 1566 1567 1567 1569 1569 1570 1570 1570 1572 1574 1575 1576 1576 1576 1577 1579 1580 1580 1580
1510 1521 1552 1548 1561 1550 1535 1559 1539 1524 1519 1520 1524 1530 1531 1533 1539 1541 1542 1546 1546 1550 1554 1556 1559 1562 1563 1564 1564 1565 1565 1564 1563 1562 1564 1564 1565 1565 1567 1567 1569 1570 1571 1571 1572 1572 1573 1575 1575
1511 1525 1519 1546 1553 1557 1559 1542 1531 1530 1530 1528 1530 1533 1535 1537 1538 1543 1544 1547 1548 1551 1554 1557 1559 1559 1559 1560 1561 1560 1560 1559 1557 1557 1557 1558 1558 1558 1559 1561 1562 1563 1564 1565 1566 1566 1566 1568 1570
1504 1512 1531 1545 1551 1572 1563 1559 1557 1541 1540 1535 1537 1537 1540 1541 1541 1541 1543 1548 1550 1554 1555 1555 1556 1557 1556 1556 1556 1555 1553 1551 1549 1547 1547 1549 1550 1551 1552 1552 1554 1555 1557 1558 1560 1560 1561 1562 1562
1517 1521 1533 1543 1555 1565 1580 1571 1547 1548 1544 1542 1542 1542 1542 1541 1542 1543 1545 1549 1553 1555 1556 1555 1554 1554 1553 1552 1551 1550 1548 1545 1542 1539 1538 1540 1541 1542 1543 1544 1546 1548 1550 1551 1551 1552 1554 1554 1555
1514 1522 1533 1548 1547 1563 1566 1574 1554 1552 1549 1547 1547 1545 1545 1546 1549 1551 1552 1554 1554 1553 1552 1553 1553 1553 1551 1549 1547 1544 1542 1539 1535 1532 1531 1531 1531 1533 1534 1536 1538 1539 1541 1543 1544 1544 1545 1546 1548